Volk, WI

6:36 AM CDT on June 26, 2017 (GMT -0500)
Volk

Weather History for KVOK - December, 2012

Change the Weather History Date:

Wednesday, December 12, 2012

  Actual Average Record
Temperature  
Mean Temperature 28 °F -  
Max Temperature 41 °F 31 °F 50 °F (1998)
Min Temperature 15 °F 19 °F -9 °F (2000)
Degree Days  
Heating Degree Days 37    
Moisture  
Dew Point 21 °F    
Average Humidity 70    
Maximum Humidity 100    
Minimum Humidity 49    
Precipitation  
Precipitation 0.00 in - - ()
Snow  
Snow 0.00 in - - ()
Snow Depth 4.00 in    
Sea Level Pressure  
Sea Level Pressure 30.10 in    
Wind  
Wind Speed 5 mph (SSE)    
Max Wind Speed 17 mph    
Max Gust Speed 24 mph    
Visibility 10 miles    
Events      
Averages and records for this station are not official NWS values.
T = Trace of Precipitation, MM = Missing Value Source: NWS Daily Summary

Daily Weather History Graph

Daily Weather History Graph

Search for Another Location

Airport or City:

Trip Planner

Search our weather history database for the weather conditions in past years. The results will help you decide how hot, cold, wet, or windy it might be!

Date:

Astronomy

Dec. 12, 2012 Rise Set
Actual Time 7:26 AM CST 4:23 PM CST
Civil Twilight 6:53 AM CST 4:56 PM CST
Nautical Twilight 6:17 AM CST 5:32 PM CST
Astronomical Twilight 5:42 AM CST 6:07 PM CST
Moon 6:30 AM CST (12/12) 4:01 PM CST (12/12)
Length of Visible Light 10h 02m
Length of Day
8h 56m
Waning Crescent, 1% of the Moon is Illuminated
Dec 12
Waning Crescent
Dec 13
New
Dec 19
First Quarter
Dec 28
Full
Jan 4
Last Quarter

Hourly Weather History & Observations

Time (CST) Temp. Windchill Dew Point Humidity Pressure Visibility Wind Dir Wind Speed Gust Speed Precip Events Conditions
12:55 AM 18.0 °F - 16.0 °F 92% 30.10 in 10.0 mi Calm Calm - N/A   Overcast
1:55 AM 19.0 °F - 17.1 °F 92% 30.11 in 10.0 mi Calm Calm - N/A   Overcast
2:55 AM 16.7 °F - 14.9 °F 93% 30.12 in 8.0 mi Calm Calm - N/A   Mostly Cloudy
3:55 AM 15.3 °F - 13.3 °F 92% 30.12 in 10.0 mi Calm Calm - N/A   Mostly Cloudy
4:55 AM 15.1 °F 9.4 °F 12.2 °F 88% 30.12 in 10.0 mi ESE 3.5 mph - N/A   Partly Cloudy
5:55 AM 15.1 °F 9.4 °F 12.7 °F 90% 30.13 in 10.0 mi East 3.5 mph - N/A   Mostly Cloudy
6:55 AM 17.6 °F - 15.8 °F 93% 30.12 in 10.0 mi Calm Calm - N/A   Overcast
7:55 AM 21.2 °F - 21.2 °F 100% 30.14 in 10.0 mi Calm Calm - N/A   Mostly Cloudy
8:55 AM 24.8 °F 19.1 °F 23.0 °F 93% 30.13 in 10.0 mi SE 4.6 mph - N/A   Mostly Cloudy
9:55 AM 30.2 °F 22.6 °F 24.8 °F 80% 30.14 in 10.0 mi SSE 8.1 mph - N/A   Mostly Cloudy
10:55 AM 33.8 °F 24.8 °F 23.0 °F 65% 30.13 in 10.0 mi South 12.7 mph - N/A   Overcast
11:55 AM 35.6 °F 26.6 °F 23.0 °F 60% 30.11 in 10.0 mi South 13.8 mph 19.6 mph N/A   Mostly Cloudy
12:55 PM 39.2 °F 30.2 °F 23.0 °F 52% 30.08 in 10.0 mi South 17.3 mph 24.2 mph N/A   Overcast
1:55 PM 41.0 °F 33.5 °F 23.0 °F 49% 30.06 in 10.0 mi South 13.8 mph - N/A   Mostly Cloudy
2:55 PM 41.0 °F 34.3 °F 23.0 °F 49% 30.06 in 10.0 mi South 11.5 mph 20.7 mph N/A   Mostly Cloudy
3:55 PM 39.2 °F 31.6 °F 24.8 °F 56% 30.07 in 10.0 mi SSE 12.7 mph - N/A   Scattered Clouds
4:55 PM 39.2 °F 33.0 °F 24.8 °F 56% 30.05 in 10.0 mi SSE 9.2 mph - N/A   Mostly Cloudy
5:55 PM 37.4 °F 29.3 °F 24.8 °F 60% 30.05 in 10.0 mi SSE 12.7 mph - N/A   Mostly Cloudy
6:55 PM 39.2 °F 30.8 °F 24.8 °F 56% 30.04 in 10.0 mi South 15.0 mph 20.7 mph N/A   Mostly Cloudy
7:55 PM 39.2 °F 31.2 °F 24.8 °F 56% 30.06 in 10.0 mi South 13.8 mph 23.0 mph N/A   Mostly Cloudy
8:55 PM 39.2 °F 31.6 °F 24.8 °F 56% 30.06 in 10.0 mi South 12.7 mph 24.2 mph N/A   Overcast
9:55 PM 39.2 °F 34.2 °F 24.8 °F 56% 30.08 in 10.0 mi Variable 6.9 mph - N/A   Overcast
10:55 PM 39.2 °F 33.0 °F 23.0 °F 52% 30.10 in 10.0 mi SSW 9.2 mph - N/A   Scattered Clouds
11:55 PM 37.4 °F 31.4 °F 23.0 °F 56% 30.11 in 10.0 mi SSW 8.1 mph 16.1 mph N/A   Clear